When you browse on this site, cookies collect data to enhance your experience and personalize the content and advertising you see.
Visit our Privacy Policy to learn more. By continuing to use the site, you agree to this use of cookies and data.
  • In Romania
  • List of Countries
  • For 7 days
  • Water Temperature
  • Satellite Maps
  • Weather Map
  • Weather Widgets
  • user-avatar
    Login

    Hourly Weather Simonovo

    Today, 24 March, Sunday

    Time Temperature Precipitation Wind Pressure Humidity
    00:00 -2°C° 0 mm 4 mps 748 mmHg 89%
    01:00 -2°C° 0 mm 4 mps 747 mmHg 88%
    02:00 -1°C° 0 mm 4 mps 747 mmHg 86%
    03:00 -1°C° 0.3 mm 4 mps 746 mmHg 87%
    04:00 -1°C° 0.3 mm 4 mps 745 mmHg 87%
    05:00 -1°C° 0.3 mm 5 mps 744 mmHg 88%
    06:00 -1°C° 0.1 mm 4 mps 743 mmHg 89%
    07:00 -1°C° 0.1 mm 4 mps 743 mmHg 90%
    08:00 -1°C° 0.1 mm 4 mps 742 mmHg 90%
    09:00 0°C° 0.1 mm 4 mps 742 mmHg 89%
    10:00 +1°C° 0.1 mm 4 mps 742 mmHg 88%
    11:00 +3°C° 0.1 mm 4 mps 741 mmHg 87%
    12:00 +3°C° 0.5 mm 4 mps 741 mmHg 84%
    13:00 +3°C° 0.5 mm 4 mps 741 mmHg 81%
    14:00 +2°C° 0.5 mm 5 mps 741 mmHg 78%
    15:00 +3°C° 0.1 mm 4 mps 741 mmHg 80%
    16:00 +1°C° 0.1 mm 4 mps 741 mmHg 81%
    17:00 +2°C° 0.1 mm 3 mps 741 mmHg 83%
    18:00 +1°C° 0 mm 3 mps 741 mmHg 85%
    19:00 0°C° 0 mm 3 mps 741 mmHg 87%
    20:00 -1°C° 0 mm 2 mps 742 mmHg 89%
    21:00 -2°C° 0 mm 2 mps 742 mmHg 89%
    22:00 -2°C° 0 mm 2 mps 742 mmHg 90%
    23:00 -2°C° 0 mm 2 mps 742 mmHg 90%

    Tomorrow, 25 March, Monday

    Time Temperature Precipitation Wind Pressure Humidity
    00:00 -4°C° 0 mm 3 mps 742 mmHg 90%
    01:00 -4°C° 0 mm 3 mps 742 mmHg 89%
    02:00 -4°C° 0 mm 3 mps 742 mmHg 89%
    03:00 -4°C° 0 mm 3 mps 742 mmHg 88%
    04:00 -5°C° 0 mm 3 mps 742 mmHg 88%
    05:00 -5°C° 0 mm 3 mps 742 mmHg 88%
    06:00 -4°C° 0 mm 3 mps 742 mmHg 85%
    07:00 -2°C° 0 mm 3 mps 741 mmHg 83%
    08:00 -1°C° 0 mm 3 mps 741 mmHg 80%
    09:00 0°C° 0 mm 3 mps 741 mmHg 78%
    10:00 +1°C° 0 mm 3 mps 741 mmHg 76%
    11:00 +2°C° 0 mm 3 mps 741 mmHg 73%
    12:00 +3°C° 0 mm 3 mps 741 mmHg 70%
    13:00 +4°C° 0 mm 4 mps 741 mmHg 67%
    14:00 +5°C° 0 mm 4 mps 740 mmHg 64%
    15:00 +4°C° 0.1 mm 3 mps 740 mmHg 68%
    16:00 +3°C° 0.1 mm 3 mps 740 mmHg 71%
    17:00 +3°C° 0.1 mm 2 mps 740 mmHg 75%
    18:00 +2°C° 0 mm 2 mps 740 mmHg 77%
    19:00 +1°C° 0 mm 2 mps 740 mmHg 79%
    20:00 -1°C° 0 mm 2 mps 740 mmHg 81%
    21:00 -1°C° 0 mm 2 mps 740 mmHg 82%
    22:00 -2°C° 0 mm 2 mps 740 mmHg 83%
    23:00 -2°C° 0 mm 2 mps 740 mmHg 83%

    Day after tomorrow, 26 March, Tuesday

    Time Temperature Precipitation Wind Pressure Humidity
    00:00 -2°C° 0 mm 3 mps 740 mmHg 83%
    01:00 -2°C° 0 mm 3 mps 739 mmHg 83%
    02:00 -2°C° 0 mm 3 mps 739 mmHg 83%
    03:00 -2°C° 0 mm 3 mps 739 mmHg 84%
    04:00 -2°C° 0 mm 3 mps 738 mmHg 84%
    05:00 -2°C° 0 mm 3 mps 738 mmHg 85%
    06:00 -2°C° 0.1 mm 3 mps 738 mmHg 84%
    07:00 -1°C° 0.1 mm 3 mps 738 mmHg 83%
    08:00 0°C° 0.1 mm 3 mps 737 mmHg 82%
    09:00 +1°C° 0.1 mm 3 mps 737 mmHg 80%
    10:00 +2°C° 0.1 mm 3 mps 737 mmHg 79%
    11:00 +3°C° 0.1 mm 3 mps 737 mmHg 77%
    12:00 +2°C° 0.5 mm 3 mps 737 mmHg 79%
    13:00 0°C° 0.5 mm 4 mps 737 mmHg 81%
    14:00 0°C° 0.5 mm 4 mps 737 mmHg 84%
    15:00 -1°C° 0.3 mm 4 mps 737 mmHg 83%
    16:00 -2°C° 0.3 mm 4 mps 738 mmHg 83%
    17:00 -2°C° 0.3 mm 4 mps 738 mmHg 82%
    18:00 -3°C° 0.1 mm 4 mps 738 mmHg 81%
    19:00 -4°C° 0.1 mm 4 mps 738 mmHg 80%
    20:00 -4°C° 0.1 mm 4 mps 738 mmHg 79%
    21:00 -4°C° 0 mm 4 mps 738 mmHg 78%
    22:00 -5°C° 0 mm 4 mps 739 mmHg 77%
    23:00 -5°C° 0 mm 4 mps 739 mmHg 76%

    27 March, Wednesday

    Time Temperature Precipitation Wind Pressure Humidity
    00:00 -6°C° 0 mm 5 mps 739 mmHg 76%
    01:00 -6°C° 0 mm 5 mps 739 mmHg 76%
    02:00 -6°C° 0 mm 5 mps 739 mmHg 76%
    03:00 -7°C° 0 mm 5 mps 739 mmHg 77%
    04:00 -8°C° 0 mm 6 mps 740 mmHg 79%
    05:00 -8°C° 0 mm 6 mps 740 mmHg 80%
    06:00 -6°C° 0.3 mm 6 mps 740 mmHg 80%
    07:00 -6°C° 0.3 mm 6 mps 740 mmHg 81%
    08:00 -7°C° 0.3 mm 7 mps 741 mmHg 82%
    09:00 -6°C° 0.6 mm 7 mps 741 mmHg 82%
    10:00 -6°C° 0.6 mm 7 mps 742 mmHg 83%
    11:00 -4°C° 0.6 mm 7 mps 742 mmHg 83%
    12:00 -4°C° 0.2 mm 7 mps 743 mmHg 80%
    13:00 -3°C° 0.2 mm 7 mps 744 mmHg 76%
    14:00 -2°C° 0.2 mm 7 mps 745 mmHg 73%
    15:00 -3°C° 0 mm 7 mps 745 mmHg 73%
    16:00 -3°C° 0 mm 6 mps 746 mmHg 73%
    17:00 -3°C° 0 mm 6 mps 747 mmHg 74%
    18:00 -4°C° 0 mm 5 mps 748 mmHg 74%
    19:00 -3°C° 0 mm 4 mps 749 mmHg 74%
    20:00 -3°C° 0 mm 4 mps 750 mmHg 74%
    21:00 -4°C° 0 mm 4 mps 750 mmHg 78%
    22:00 -5°C° 0 mm 3 mps 751 mmHg 82%
    23:00 -6°C° 0 mm 3 mps 751 mmHg 86%

    28 March, Thursday

    Time Temperature Precipitation Wind Pressure Humidity
    00:00 -6°C° 0 mm 3 mps 752 mmHg 86%
    01:00 -6°C° 0 mm 3 mps 752 mmHg 86%
    02:00 -7°C° 0 mm 3 mps 752 mmHg 86%
    03:00 -6°C° 0 mm 3 mps 752 mmHg 85%
    04:00 -6°C° 0 mm 3 mps 752 mmHg 84%
    05:00 -5°C° 0 mm 3 mps 752 mmHg 82%
    06:00 -4°C° 0 mm 4 mps 752 mmHg 80%
    07:00 -3°C° 0 mm 4 mps 751 mmHg 77%
    08:00 -2°C° 0 mm 5 mps 751 mmHg 75%
    09:00 -2°C° 0 mm 5 mps 751 mmHg 75%
    10:00 -1°C° 0 mm 4 mps 751 mmHg 75%
    11:00 0°C° 0 mm 4 mps 751 mmHg 75%
    12:00 0°C° 0 mm 5 mps 751 mmHg 75%
    13:00 0°C° 0 mm 5 mps 751 mmHg 74%
    14:00 +1°C° 0 mm 5 mps 750 mmHg 73%
    15:00 +1°C° 0 mm 4 mps 750 mmHg 75%
    16:00 +2°C° 0 mm 3 mps 750 mmHg 76%
    17:00 +1°C° 0 mm 3 mps 749 mmHg 78%
    18:00 +1°C° 0 mm 3 mps 748 mmHg 79%
    19:00 0°C° 0 mm 4 mps 748 mmHg 81%
    20:00 0°C° 0 mm 4 mps 747 mmHg 82%
    21:00 0°C° 0.5 mm 5 mps 746 mmHg 83%
    22:00 +1°C° 0.5 mm 5 mps 745 mmHg 83%
    23:00 +1°C° 0.5 mm 6 mps 744 mmHg 83%

    29 March, Friday

    Time Temperature Precipitation Wind Pressure Humidity
    00:00 +1°C° 0.1 mm 6 mps 743 mmHg 84%
    01:00 +1°C° 0.1 mm 6 mps 743 mmHg 85%
    02:00 +1°C° 0.1 mm 6 mps 742 mmHg 86%
    03:00 +1°C° 0.3 mm 6 mps 742 mmHg 84%
    04:00 0°C° 0.3 mm 7 mps 741 mmHg 83%
    05:00 0°C° 0.3 mm 7 mps 741 mmHg 82%
    06:00 0°C° 0.1 mm 7 mps 741 mmHg 80%
    07:00 -1°C° 0.1 mm 7 mps 742 mmHg 79%
    08:00 -1°C° 0.1 mm 7 mps 743 mmHg 77%
    09:00 -1°C° 0.1 mm 7 mps 744 mmHg 76%
    10:00 0°C° 0.1 mm 7 mps 745 mmHg 75%
    11:00 0°C° 0.1 mm 7 mps 745 mmHg 74%
    12:00 +2°C° 0 mm 7 mps 746 mmHg 72%
    13:00 +2°C° 0 mm 7 mps 747 mmHg 71%
    14:00 +3°C° 0 mm 6 mps 748 mmHg 69%
    15:00 +2°C° 0.1 mm 6 mps 748 mmHg 71%
    16:00 +1°C° 0.1 mm 5 mps 749 mmHg 74%
    17:00 +1°C° 0.1 mm 4 mps 750 mmHg 76%
    18:00 0°C° 0 mm 4 mps 750 mmHg 79%
    19:00 0°C° 0 mm 3 mps 751 mmHg 82%
    20:00 -1°C° 0 mm 3 mps 751 mmHg 86%
    21:00 -2°C° 0 mm 3 mps 751 mmHg 88%
    22:00 -2°C° 0 mm 2 mps 752 mmHg 91%
    23:00 -3°C° 0 mm 2 mps 752 mmHg 93%
    Show more